• In Latvia
  • List of Countries
  • For 7 days
  • Water Temperature
  • Satellite Maps
  • Weather Map
  • Weather Widgets
  • user-avatar
    Login

    Hourly Weather Wagadugu

    Today, 17 October, Wednesday

    Time Temperature Precipitation Wind Pressure Humidity
    00:00 +34°C° 0 mm 3 mps 733 mmHg 37%
    01:00 +33°C° 0 mm 3 mps 733 mmHg 40%
    02:00 +33°C° 0 mm 3 mps 732 mmHg 43%
    03:00 +31°C° 0 mm 3 mps 732 mmHg 45%
    04:00 +30°C° 0 mm 3 mps 732 mmHg 50%
    05:00 +30°C° 0 mm 3 mps 732 mmHg 54%
    06:00 +29°C° 0 mm 4 mps 733 mmHg 59%
    07:00 +32°C° 0 mm 4 mps 733 mmHg 56%
    08:00 +33°C° 0 mm 4 mps 733 mmHg 53%
    09:00 +35°C° 0 mm 5 mps 734 mmHg 50%
    10:00 +36°C° 0 mm 4 mps 733 mmHg 44%
    11:00 +38°C° 0 mm 3 mps 733 mmHg 39%
    12:00 +39°C° 0 mm 2 mps 732 mmHg 33%
    13:00 +40°C° 0 mm 2 mps 732 mmHg 31%
    14:00 +40°C° 0 mm 2 mps 731 mmHg 28%
    15:00 +40°C° 0 mm 1 mps 730 mmHg 25%
    16:00 +39°C° 0 mm 1 mps 730 mmHg 27%
    17:00 +37°C° 0 mm 1 mps 731 mmHg 29%
    18:00 +36°C° 0 mm 1 mps 731 mmHg 30%
    19:00 +36°C° 0 mm 1 mps 731 mmHg 32%
    20:00 +35°C° 0 mm 1 mps 732 mmHg 33%
    21:00 +36°C° 0 mm 2 mps 732 mmHg 35%
    22:00 +35°C° 0 mm 2 mps 732 mmHg 36%
    23:00 +34°C° 0 mm 2 mps 732 mmHg 38%

    Tomorrow, 18 October, Thursday

    Time Temperature Precipitation Wind Pressure Humidity
    00:00 +34°C° 0 mm 2 mps 732 mmHg 40%
    01:00 +33°C° 0 mm 3 mps 731 mmHg 42%
    02:00 +33°C° 0 mm 3 mps 731 mmHg 44%
    03:00 +31°C° 0 mm 3 mps 731 mmHg 47%
    04:00 +32°C° 0 mm 4 mps 731 mmHg 50%
    05:00 +30°C° 0 mm 4 mps 731 mmHg 54%
    06:00 +30°C° 0 mm 5 mps 731 mmHg 57%
    07:00 +32°C° 0 mm 5 mps 732 mmHg 54%
    08:00 +33°C° 0 mm 5 mps 732 mmHg 50%
    09:00 +35°C° 0 mm 6 mps 732 mmHg 47%
    10:00 +36°C° 0 mm 5 mps 732 mmHg 42%
    11:00 +38°C° 0 mm 4 mps 731 mmHg 37%
    12:00 +39°C° 0 mm 3 mps 731 mmHg 33%
    13:00 +40°C° 0 mm 2 mps 730 mmHg 30%
    14:00 +40°C° 0 mm 1 mps 729 mmHg 27%
    15:00 +38°C° 0 mm 0 mps 728 mmHg 24%
    16:00 +40°C° 0 mm 1 mps 729 mmHg 26%
    17:00 +39°C° 0 mm 1 mps 729 mmHg 28%
    18:00 +37°C° 0 mm 1 mps 729 mmHg 29%
    19:00 +37°C° 0 mm 2 mps 729 mmHg 31%
    20:00 +37°C° 0 mm 2 mps 730 mmHg 32%
    21:00 +36°C° 0 mm 2 mps 730 mmHg 34%
    22:00 +36°C° 0 mm 2 mps 730 mmHg 35%
    23:00 +35°C° 0 mm 3 mps 730 mmHg 37%

    Day after tomorrow, 19 October, Friday

    Time Temperature Precipitation Wind Pressure Humidity
    00:00 +35°C° 0 mm 3 mps 730 mmHg 38%
    01:00 +34°C° 0.2 mm 3 mps 730 mmHg 43%
    02:00 +33°C° 0.2 mm 4 mps 730 mmHg 47%
    03:00 +32°C° 0.2 mm 4 mps 730 mmHg 52%
    04:00 +30°C° 0 mm 4 mps 730 mmHg 56%
    05:00 +30°C° 0 mm 4 mps 730 mmHg 59%
    06:00 +29°C° 0 mm 4 mps 731 mmHg 63%
    07:00 +32°C° 0 mm 5 mps 731 mmHg 60%
    08:00 +33°C° 0 mm 5 mps 732 mmHg 56%
    09:00 +34°C° 0 mm 6 mps 732 mmHg 53%
    10:00 +36°C° 0 mm 5 mps 732 mmHg 47%
    11:00 +37°C° 0 mm 5 mps 731 mmHg 42%
    12:00 +38°C° 0 mm 4 mps 731 mmHg 37%
    13:00 +39°C° 0 mm 3 mps 730 mmHg 34%
    14:00 +39°C° 0 mm 3 mps 730 mmHg 32%
    15:00 +40°C° 0 mm 2 mps 729 mmHg 30%
    16:00 +39°C° 0 mm 2 mps 729 mmHg 31%
    17:00 +38°C° 0 mm 2 mps 729 mmHg 32%
    18:00 +37°C° 0 mm 2 mps 729 mmHg 34%
    19:00 +37°C° 0 mm 2 mps 730 mmHg 36%
    20:00 +36°C° 0 mm 2 mps 730 mmHg 38%
    21:00 +35°C° 0 mm 3 mps 731 mmHg 40%
    22:00 +35°C° 0.3 mm 3 mps 731 mmHg 44%
    23:00 +34°C° 0.3 mm 3 mps 731 mmHg 49%

    20 October, Saturday

    Time Temperature Precipitation Wind Pressure Humidity
    00:00 +33°C° 0.3 mm 3 mps 731 mmHg 53%
    01:00 +31°C° 0 mm 3 mps 730 mmHg 54%
    02:00 +31°C° 0 mm 3 mps 730 mmHg 55%
    03:00 +31°C° 0 mm 2 mps 730 mmHg 56%
    04:00 +31°C° 0 mm 2 mps 730 mmHg 57%
    05:00 +30°C° 0 mm 2 mps 731 mmHg 58%
    06:00 +30°C° 0 mm 2 mps 731 mmHg 59%
    07:00 +33°C° 0 mm 3 mps 731 mmHg 54%
    08:00 +34°C° 0 mm 3 mps 732 mmHg 49%
    09:00 +36°C° 0 mm 3 mps 732 mmHg 44%
    10:00 +37°C° 0 mm 3 mps 732 mmHg 40%
    11:00 +39°C° 0 mm 3 mps 731 mmHg 36%
    12:00 +40°C° 0 mm 3 mps 731 mmHg 31%
    13:00 +40°C° 0 mm 2 mps 730 mmHg 30%
    14:00 +40°C° 0 mm 2 mps 730 mmHg 28%
    15:00 +40°C° 0 mm 1 mps 729 mmHg 26%
    16:00 +39°C° 0 mm 2 mps 729 mmHg 28%
    17:00 +38°C° 0 mm 2 mps 729 mmHg 30%
    18:00 +37°C° 0 mm 2 mps 730 mmHg 32%
    19:00 +37°C° 0 mm 2 mps 730 mmHg 34%
    20:00 +36°C° 0 mm 2 mps 731 mmHg 35%
    21:00 +34°C° 0 mm 1 mps 731 mmHg 37%
    22:00 +33°C° 0 mm 1 mps 731 mmHg 39%
    23:00 +33°C° 0 mm 1 mps 730 mmHg 41%

    21 October, Sunday

    Time Temperature Precipitation Wind Pressure Humidity
    00:00 +32°C° 0 mm 1 mps 730 mmHg 43%
    01:00 +31°C° 0 mm 1 mps 730 mmHg 45%
    02:00 +31°C° 0 mm 1 mps 729 mmHg 46%
    03:00 +31°C° 0 mm 1 mps 729 mmHg 47%
    04:00 +30°C° 0 mm 1 mps 729 mmHg 49%
    05:00 +30°C° 0 mm 1 mps 730 mmHg 51%
    06:00 +29°C° 0 mm 2 mps 730 mmHg 52%
    07:00 +31°C° 0 mm 2 mps 731 mmHg 48%
    08:00 +33°C° 0 mm 1 mps 731 mmHg 44%
    09:00 +35°C° 0 mm 1 mps 731 mmHg 39%
    10:00 +38°C° 0 mm 2 mps 731 mmHg 34%
    11:00 +39°C° 0 mm 2 mps 730 mmHg 29%
    12:00 +42°C° 0 mm 3 mps 730 mmHg 23%
    13:00 +43°C° 0 mm 4 mps 729 mmHg 21%
    14:00 +43°C° 0 mm 5 mps 729 mmHg 19%
    15:00 +45°C° 0 mm 6 mps 728 mmHg 17%
    16:00 +42°C° 0 mm 5 mps 728 mmHg 20%
    17:00 +40°C° 0 mm 4 mps 729 mmHg 24%
    18:00 +38°C° 0 mm 4 mps 729 mmHg 28%
    19:00 +37°C° 0 mm 3 mps 729 mmHg 31%
    20:00 +35°C° 0 mm 3 mps 730 mmHg 34%
    21:00 +34°C° 0 mm 3 mps 730 mmHg 37%
    22:00 +34°C° 0 mm 2 mps 730 mmHg 39%
    23:00 +32°C° 0 mm 2 mps 730 mmHg 40%

    22 October, Monday

    Time Temperature Precipitation Wind Pressure Humidity
    00:00 +32°C° 0 mm 2 mps 730 mmHg 42%
    01:00 +31°C° 0 mm 2 mps 730 mmHg 44%
    02:00 +31°C° 0 mm 2 mps 729 mmHg 45%
    03:00 +30°C° 0 mm 2 mps 729 mmHg 46%
    04:00 +30°C° 0 mm 2 mps 730 mmHg 49%
    05:00 +29°C° 0 mm 2 mps 730 mmHg 51%
    06:00 +29°C° 0 mm 3 mps 730 mmHg 54%
    07:00 +31°C° 0 mm 3 mps 730 mmHg 51%
    08:00 +34°C° 0 mm 4 mps 731 mmHg 48%
    09:00 +36°C° 0 mm 4 mps 731 mmHg 45%
    10:00 +37°C° 0 mm 3 mps 731 mmHg 38%
    11:00 +39°C° 0 mm 2 mps 730 mmHg 32%
    12:00 +40°C° 0 mm 1 mps 729 mmHg 26%
    13:00 +41°C° 0 mm 2 mps 729 mmHg 22%
    14:00 +43°C° 0 mm 3 mps 728 mmHg 18%
    15:00 +44°C° 0 mm 4 mps 728 mmHg 15%
    16:00 +42°C° 0 mm 4 mps 728 mmHg 18%
    17:00 +40°C° 0 mm 4 mps 728 mmHg 21%
    18:00 +38°C° 0 mm 3 mps 728 mmHg 23%
    19:00 +37°C° 0 mm 3 mps 729 mmHg 26%
    20:00 +36°C° 0 mm 3 mps 729 mmHg 29%
    21:00 +35°C° 0 mm 3 mps 730 mmHg 32%
    22:00 +34°C° 0 mm 2 mps 730 mmHg 33%
    23:00 +34°C° 0 mm 2 mps 729 mmHg 35%
    Show more